Weather History for Lexington, NE

Change the Weather History Date:

Wednesday, December 18, 2013

  Actual Average Record
Temperature  
Mean Temperature 46 °F -  
Max Temperature 69 °F 36 °F 69 °F (2013)
Min Temperature 24 °F 14 °F 1 °F (1996)
Degree Days  
Heating Degree Days 18    
Moisture  
Dew Point 21 °F    
Average Humidity 50    
Maximum Humidity 81    
Minimum Humidity 14    
Precipitation  
Precipitation 0.00 in - - ()
Sea Level Pressure  
Sea Level Pressure 29.80 in    
Wind  
Wind Speed 5 mph (WNW)    
Max Wind Speed 13 mph    
Max Gust Speed -    
Visibility 9 miles    
Events      
Averages and records for this station are not official NWS values.
T = Trace of Precipitation, MM = Missing Value Source: NWS Daily Summary

Daily Weather History Graph

Daily Weather History Graph

Search for Another Location

Airport:

Trip Planner

Search our weather history database for the weather conditions in past years. The results will help you decide how hot, cold, wet, or windy it might be!

Date:

Astronomy

Dec. 18, 2013 Rise Set
Actual Time 7:58 AM CST 5:13 PM CST
Civil Twilight 7:27 AM CST 5:44 PM CST
Nautical Twilight 6:52 AM CST 6:19 PM CST
Astronomical Twilight 6:19 AM CST 6:52 PM CST
Moon 6:47 PM CST (12/18) 8:38 AM CST (12/18)
Length of Visible Light 10h 17m
Length of Day
9h 15m
Full, 98% of the Moon is Illuminated
Dec 18
Full
Dec 25
Last Quarter
Jan 1
New
Jan 7
First Quarter
Jan 15
Full

Hourly Weather History & Observations

Time (CST) Temp. Windchill Dew Point Humidity Pressure Visibility Wind Dir Wind Speed Gust Speed Precip Events Conditions
12:15 AM 37.8 °F 34.2 °F 20.8 °F 51% 30.00 in 10.0 mi SW 4.6 mph - N/A   Clear
12:35 AM 37.0 °F 34.5 °F 21.0 °F 52% 29.99 in 10.0 mi West 3.5 mph - N/A   Clear
12:55 AM 38.5 °F 34.1 °F 20.7 °F 49% 29.97 in 10.0 mi SW 5.8 mph - N/A   Clear
1:15 AM 38.8 °F 33.8 °F 20.5 °F 48% 29.96 in 10.0 mi WSW 6.9 mph - N/A   Clear
1:35 AM 36.1 °F 30.6 °F 20.3 °F 53% 29.95 in 10.0 mi West 6.9 mph - N/A   Clear
1:55 AM 38.5 °F 35.0 °F 20.1 °F 48% 29.95 in 10.0 mi NW 4.6 mph - N/A   Clear
2:15 AM 37.2 °F 32.6 °F 20.7 °F 51% 29.93 in 10.0 mi WSW 5.8 mph - N/A   Clear
2:35 AM 35.6 °F 32.8 °F 20.5 °F 54% 29.92 in 10.0 mi SW 3.5 mph - N/A   Clear
2:55 AM 35.8 °F 31.9 °F 19.9 °F 53% 29.92 in 10.0 mi WSW 4.6 mph - N/A   Clear
3:15 AM 32.2 °F 26.7 °F 19.4 °F 59% 29.91 in 10.0 mi WSW 5.8 mph - N/A   Clear
3:35 AM 32.2 °F 25.8 °F 20.3 °F 62% 29.91 in 10.0 mi WSW 6.9 mph - N/A   Clear
3:55 AM 31.8 °F 25.4 °F 20.1 °F 62% 29.90 in 10.0 mi West 6.9 mph - N/A   Clear
4:15 AM 32.0 °F 24.8 °F 20.8 °F 63% 29.89 in 10.0 mi West 8.1 mph - N/A   Clear
4:35 AM 31.6 °F 26.0 °F 20.5 °F 63% 29.88 in 10.0 mi WSW 5.8 mph - N/A   Clear
4:55 AM 30.9 °F 26.2 °F 20.3 °F 65% 29.87 in 10.0 mi WSW 4.6 mph - N/A   Clear
5:15 AM 30.9 °F 26.2 °F 20.5 °F 65% 29.87 in 10.0 mi WSW 4.6 mph - N/A   Clear
5:35 AM 31.6 °F 27.0 °F 20.5 °F 63% 29.86 in 10.0 mi WSW 4.6 mph - N/A   Clear
5:55 AM 31.6 °F 27.0 °F 20.5 °F 63% 29.86 in 10.0 mi WSW 4.6 mph - N/A   Clear
6:15 AM 28.6 °F 22.4 °F 19.9 °F 70% 29.85 in 10.0 mi West 5.8 mph - N/A   Clear
6:35 AM 26.6 °F 21.2 °F 20.3 °F 77% 29.85 in 10.0 mi NW 4.6 mph - N/A   Clear
6:55 AM 24.8 °F 17.9 °F 19.4 °F 80% 29.84 in 10.0 mi NW 5.8 mph - N/A   Clear
7:15 AM 24.6 °F - 19.2 °F 80% 29.84 in 10.0 mi Calm Calm - N/A   Clear
7:35 AM 25.9 °F - 19.4 °F 76% 29.83 in 10.0 mi Calm Calm - N/A   Clear
7:55 AM 24.6 °F - 19.6 °F 81% 29.83 in 10.0 mi Calm Calm - N/A   Clear
8:15 AM 25.9 °F 21.7 °F 19.6 °F 77% 29.83 in 10.0 mi NW 3.5 mph - N/A   Clear
8:35 AM 26.2 °F 22.1 °F 20.8 °F 80% 29.83 in 7.0 mi West 3.5 mph - N/A   Clear
8:55 AM 27.5 °F 23.6 °F 21.9 °F 80% 29.82 in 5.0 mi NW 3.5 mph - N/A   Haze
9:15 AM 28.9 °F 23.9 °F 23.4 °F 80% 29.82 in 7.0 mi West 4.6 mph - N/A   Clear
9:35 AM 33.1 °F 26.9 °F 23.7 °F 68% 29.82 in 10.0 mi West 6.9 mph - N/A   Clear
9:55 AM 36.7 °F 34.1 °F 23.7 °F 59% 29.82 in 10.0 mi West 3.5 mph - N/A   Clear
10:15 AM 40.3 °F 38.2 °F 23.7 °F 52% 29.82 in 10.0 mi West 3.5 mph - N/A   Clear
10:35 AM 43.9 °F 41.3 °F 24.4 °F 46% 29.82 in 10.0 mi WNW 4.6 mph - N/A   Clear
10:55 AM 47.7 °F - 24.3 °F 40% 29.82 in 10.0 mi West 3.5 mph - N/A   Clear
11:15 AM 50.4 °F - 23.9 °F 36% 29.80 in 10.0 mi WNW 3.5 mph - N/A   Clear
11:35 AM 53.6 °F - 24.1 °F 32% 29.79 in 10.0 mi NW 3.5 mph - N/A   Clear
11:55 AM 55.9 °F - 24.1 °F 29% 29.78 in 10.0 mi West 3.5 mph - N/A   Clear
12:15 PM 57.9 °F - 24.6 °F 28% 29.76 in 10.0 mi West 4.6 mph - N/A   Clear
12:35 PM 59.7 °F - 24.8 °F 26% 29.76 in 10.0 mi NW 4.6 mph - N/A   Clear
12:55 PM 62.4 °F - 24.8 °F 24% 29.75 in 10.0 mi WNW 3.5 mph - N/A   Clear
1:15 PM 64.0 °F - 24.6 °F 22% 29.74 in 10.0 mi Calm Calm - N/A   Clear
1:35 PM 65.7 °F - 24.6 °F 21% 29.72 in 10.0 mi Calm Calm - N/A   Clear
1:55 PM 68.5 °F - 23.4 °F 18% 29.71 in 10.0 mi WNW 9.2 mph - N/A   Clear
2:15 PM 69.4 °F - 23.2 °F 17% 29.70 in 10.0 mi NW 5.8 mph - N/A   Clear
2:35 PM 69.1 °F - 21.7 °F 17% 29.70 in 10.0 mi NW 5.8 mph - N/A   Clear
2:55 PM 69.3 °F - 21.7 °F 17% 29.69 in 10.0 mi WNW 6.9 mph - N/A   Clear
3:15 PM 69.8 °F - 18.9 °F 14% 29.69 in 10.0 mi NW 12.7 mph - N/A   Clear
3:35 PM 68.9 °F - 19.0 °F 15% 29.70 in 10.0 mi NW 11.5 mph - N/A   Clear
3:55 PM 67.8 °F - 19.4 °F 16% 29.70 in 10.0 mi NW 9.2 mph - N/A   Clear
4:15 PM 64.4 °F - 19.9 °F 18% 29.69 in 10.0 mi NW 6.9 mph - N/A   Clear
4:35 PM 62.1 °F - 20.3 °F 20% 29.69 in 10.0 mi NW 3.5 mph - N/A   Clear
4:55 PM 59.7 °F - 20.3 °F 22% 29.69 in 10.0 mi West 3.5 mph - N/A   Clear
5:15 PM 56.8 °F - 20.3 °F 24% 29.69 in 5.0 mi WNW 6.9 mph - N/A   Haze
5:35 PM 50.9 °F - 18.5 °F 28% 29.69 in 10.0 mi WNW 4.6 mph - N/A   Clear
5:55 PM 45.3 °F - 18.7 °F 35% 29.69 in 7.0 mi Calm Calm - N/A   Clear
6:15 PM 46.9 °F - 18.7 °F 33% 29.70 in 10.0 mi Calm Calm - N/A   Clear
6:35 PM 38.1 °F 33.7 °F 19.0 °F 46% 29.70 in 7.0 mi North 5.8 mph - N/A   Clear
6:55 PM 36.7 °F - 18.1 °F 47% 29.71 in 7.0 mi Calm Calm - N/A   Clear
7:15 PM 42.6 °F - 18.9 °F 39% 29.71 in 7.0 mi Calm Calm - N/A   Clear
7:35 PM 40.5 °F 36.5 °F 17.6 °F 40% 29.71 in 7.0 mi NNE 5.8 mph - N/A   Clear
7:55 PM 33.6 °F - 18.5 °F 54% 29.72 in 7.0 mi Calm Calm - N/A   Clear
8:15 PM 32.2 °F - 18.5 °F 57% 29.72 in 7.0 mi Calm Calm - N/A   Clear
8:35 PM 30.9 °F - 17.6 °F 58% 29.72 in 7.0 mi Calm Calm - N/A   Clear
8:55 PM 29.8 °F 23.0 °F 18.0 °F 61% 29.73 in 7.0 mi WNW 6.9 mph - N/A   Clear
9:15 PM 30.2 °F 22.6 °F 18.7 °F 62% 29.74 in 10.0 mi WNW 8.1 mph - N/A   Clear
9:35 PM 29.5 °F 21.1 °F 18.5 °F 64% 29.75 in 10.0 mi WNW 9.2 mph - N/A   Clear
9:55 PM 27.5 °F 18.6 °F 18.3 °F 68% 29.75 in 10.0 mi NW 9.2 mph - N/A   Clear
10:15 PM 29.1 °F 21.3 °F 19.0 °F 66% 29.75 in 10.0 mi NW 8.1 mph - N/A   Clear
10:35 PM 30.0 °F 22.4 °F 20.3 °F 67% 29.75 in 10.0 mi NW 8.1 mph - N/A   Clear
10:55 PM 27.5 °F 19.3 °F 19.8 °F 73% 29.76 in 10.0 mi WNW 8.1 mph - N/A   Clear
11:15 PM 27.3 °F 18.4 °F 19.9 °F 74% 29.76 in 10.0 mi WNW 9.2 mph - N/A   Clear
11:35 PM 25.7 °F 19.0 °F 19.2 °F 76% 29.75 in 10.0 mi WNW 5.8 mph - N/A   Clear
11:55 PM 26.2 °F 18.6 °F 20.3 °F 78% 29.75 in 10.0 mi WNW 6.9 mph - N/A   Clear